Location: Augirein
(42.9320°N, 0.9181°E)
Time: 20:14:49
(UTC+00:00)

USA 308 - Pass Details

Date: 20 June 2021
Orbit: 566 x 576 km, 54.0° (Epoch: 13 July)

Event Time Altitude Azimuth Distance (km) Brightness Sun altitude
Exits shadow 00:51:58 29° 109° (ESE) 1,056 4.1 -22.5°
Drops below altitude 10° 00:54:55 10° 69° (ENE) 1,863 5.9 -22.3°
Sets 00:57:20 0° 59° (ENE) 2,763 7.1 -22.2°
